This demonstration page uses our WeatherBlox Daily Observations layout. Learn more.

Left ArrowRight Arrow

Hourly Observations for March 8, 2018

Temp ( °F °C ) Dew Point ( °F °C ) Humidity (%) Winds ( mph kmh ) Pressure ( in mb ) Visibility ( mi km ) Precip ( " mm )
12:59 am 00:59 Mostly Cloudy 43 6.1 24 -4.4 47 47 NW 10 17 29.89 1012 10 16 0.00 0.00
1:59 am 01:59 Partly Cloudy 41 5 23 -5 49 49 NW 9 15 29.89 1012 10 16 0.00 0.00
2:59 am 02:59 Mostly Clear 40 4.4 24 -4.4 53 53 NW 13 20 29.88 1012 10 16 0.00 0.00
3:59 am 03:59 Partly Cloudy 39 3.9 23 -5 53 53 NW 12 19 29.89 1012 10 16 0.00 0.00
4:59 am 04:59 Partly Cloudy 37 2.8 22 -5.6 54 54 NW 8 13 29.91 1013 10 16 0.00 0.00
5:59 am 05:59 Partly Cloudy 37 2.8 22 -5.6 54 54 NW 8 13 29.91 1013 10 16 0.00 0.00
6:59 am 06:59 Mostly Sunny 37 2.8 23 -5 57 57 NW 9 15 29.91 1013 10 16 0.00 0.00
7:59 am 07:59 Mostly Sunny 40 4.4 21 -6.1 47 47 NNW 12 19 29.92 1013 10 16 0.00 0.00
8:59 am 08:59 Mostly Sunny 43 6.1 20 -6.7 40 40 N 10 17 29.92 1013 10 16 0.00 0.00
9:59 am 09:59 Partly Cloudy 43 6.1 19 -7.2 38 38 NW 6 9 29.92 1013 10 16 0.00 0.00
10:59 am 10:59 Mostly Cloudy 44 6.7 20 -6.7 38 38 WNW 10 17 29.90 1013 10 16 0.00 0.00
11:59 am 11:59 Partly Cloudy 45 7.2 19 -7.2 35 35 W 12 19 29.88 1012 10 16 0.00 0.00
12:59 pm 12:59 Partly Cloudy 45 7.2 20 -6.7 37 37 WNW 13 20 29.85 1011 10 16 0.00 0.00
1:59 pm 13:59 Mostly Cloudy 46 7.8 21 -6.1 37 37 W 7 11 29.83 1010 10 16 0.00 0.00
2:59 pm 14:59 Partly Cloudy 45 7.2 20 -6.7 37 37 VRB 5 7 29.81 1010 10 16 0.00 0.00
3:59 pm 15:59 Partly Cloudy 47 8.3 19 -7.2 33 33 W 13 20 29.80 1009 10 16 0.00 0.00
4:59 pm 16:59 Mostly Cloudy 46 7.8 20 -6.7 35 35 W 14 22 29.81 1010 10 16 0.00 0.00
5:59 pm 17:59 Partly Cloudy 45 7.2 18 -7.8 34 34 W 12 19 29.83 1010 10 16 0.00 0.00
6:59 pm 18:59 Partly Cloudy 43 6.1 20 -6.7 40 40 W 10 17 29.84 1011 10 16 0.00 0.00
7:59 pm 19:59 Partly Cloudy 43 6.1 20 -6.7 40 40 W 10 17 29.85 1011 10 16 0.00 0.00
8:59 pm 20:59 Mostly Cloudy 42 5.6 20 -6.7 41 41 W 13 20 29.87 1011 10 16 0.00 0.00
9:59 pm 21:59 Partly Cloudy 41 5 24 -4.4 51 51 W 9 15 29.87 1012 10 16 0.00 0.00
10:59 pm 22:59 Cloudy 41 5 23 -5 49 49 NNW 9 15 29.89 1012 10 16 0.00 0.00
11:59 pm 23:59 Cloudy 41 5 21 -6.1 45 45 NW 13 20 29.89 1012 10 16 0.00 0.00

Powered by AerisWeather